| time (UTC) | temp F | wind direction | speed MPH | gust MPH | rain 1hr in | rain 24hr in | rain mn in | humidity % | barometer mb |
| 20260906104551 | 66 | 174 | 1.0 | 5.0 | 0.00 | 0.01 | 0.01 | 85 | 1017.0 |
| 20260906103150 | 66 | 144 | 2.0 | 5.0 | 0.00 | 0.01 | 0.01 | 85 | 1016.8 |
| 20260906101546 | 66 | 164 | 0.0 | 5.0 | 0.00 | 0.01 | 0.01 | 85 | 1016.8 |
| 20260906100046 | 66 | 156 | 1.0 | 6.0 | 0.00 | 0.01 | 0.01 | 85 | 1016.6 |
| 20260906094545 | 66 | 164 | 0.0 | 3.0 | 0.00 | 0.01 | 0.01 | 85 | 1016.6 |
| 20260906093042 | 66 | 157 | 0.0 | 2.0 | 0.00 | 0.01 | 0.01 | 86 | 1016.5 |
| 20260906091538 | 66 | 164 | 0.0 | 4.0 | 0.00 | 0.01 | 0.01 | 86 | 1016.4 |
| 20260906090038 | 66 | 143 | 0.0 | 3.0 | 0.00 | 0.01 | 0.01 | 86 | 1016.5 |
| 20260906084538 | 66 | 159 | 0.0 | 3.0 | 0.00 | 0.01 | 0.01 | 87 | 1016.3 |
| 20260906083037 | 66 | 154 | 0.0 | 4.0 | 0.00 | 0.01 | 0.01 | 87 | 1016.5 |
| 20260906081534 | 66 | 94 | 0.0 | 2.0 | 0.00 | 0.01 | 0.01 | 87 | 1016.3 |
| 20260906080034 | 66 | 94 | 0.0 | 3.0 | 0.00 | 0.01 | 0.01 | 87 | 1016.3 |
| 20260906074535 | 66 | 89 | 0.0 | 2.0 | 0.00 | 0.01 | 0.01 | 87 | 1016.4 |
| 20260906073033 | 66 | 85 | 0.0 | 2.0 | 0.00 | 0.01 | 0.01 | 88 | 1016.5 |
| 20260906071502 | 66 | 85 | 0.0 | 2.0 | 0.00 | 0.01 | 0.01 | 88 | 1016.4 |
| 20260906064557 | 67 | 85 | 0.0 | 2.0 | 0.00 | 0.01 | 0.01 | 88 | 1016.5 |
| 20260906063057 | 67 | 83 | 0.0 | 1.0 | 0.00 | 0.01 | 0.01 | 89 | 1016.4 |
| 20260906061558 | 67 | 83 | 0.0 | 1.0 | 0.00 | 0.01 | 0.01 | 89 | 1016.5 |
| 20260906060054 | 68 | 83 | 0.0 | 1.0 | 0.00 | 0.01 | 0.01 | 89 | 1016.5 |
| 20260906054536 | 68 | 83 | 0.0 | 2.0 | 0.00 | 0.01 | 0.01 | 90 | 1016.5 |
| 20260906053020 | 68 | 83 | 0.0 | 3.0 | 0.00 | 0.01 | 0.01 | 90 | 1016.5 |
| 20260906051514 | 68 | 150 | 0.0 | 3.0 | 0.00 | 0.01 | 0.01 | 90 | 1016.1 |
| 20260906050012 | 69 | 94 | 0.0 | 3.0 | 0.00 | 0.01 | 0.01 | 90 | 1016.1 |
| 20260906044510 | 69 | 133 | 0.0 | 3.0 | 0.00 | 0.01 | 0.01 | 90 | 1016.0 |
| 20260906043015 | 69 | 150 | 2.0 | 5.0 | 0.00 | 0.01 | 0.01 | 90 | 1015.8 |
| 20260906041506 | 69 | 181 | 2.0 | 8.0 | 0.00 | 0.01 | 0.01 | 90 | 1015.6 |
| 20260906040006 | 69 | 143 | 1.0 | 8.0 | 0.00 | 0.01 | 0.01 | 90 | 1015.4 |
| 20260906034503 | 69 | 194 | 3.0 | 7.0 | 0.00 | 0.01 | 0.01 | 90 | 1015.4 |
| 20260906033007 | 69 | 154 | 2.0 | 9.0 | 0.00 | 0.01 | 0.01 | 90 | 1015.3 |
| 20260906031559 | 69 | 150 | 2.0 | 9.0 | 0.00 | 0.01 | 0.01 | 89 | 1015.3 |
| 20260906030101 | 69 | 179 | 2.0 | 7.0 | 0.00 | 0.01 | 0.01 | 89 | 1015.2 |
| 20260906024610 | 70 | 123 | 2.0 | 5.0 | 0.00 | 0.01 | 0.01 | 89 | 1015.2 |
| 20260906023101 | 70 | 197 | 1.0 | 6.0 | 0.00 | 0.01 | 0.01 | 89 | 1015.2 |
| 20260906021523 | 71 | 149 | 3.0 | 10.0 | 0.00 | 0.01 | 0.01 | 88 | 1015.1 |
| 20260906020020 | 71 | 154 | 1.0 | 5.0 | 0.00 | 0.01 | 0.01 | 89 | 1015.1 |
| 20260906014518 | 71 | 208 | 1.0 | 9.0 | 0.00 | 0.01 | 0.01 | 88 | 1015.1 |
| 20260906013017 | 71 | 123 | 3.0 | 9.0 | 0.00 | 0.01 | 0.01 | 88 | 1015.2 |
| 20260906011517 | 71 | 152 | 2.0 | 10.0 | 0.00 | 0.01 | 0.01 | 88 | 1015.2 |
| 20260906010018 | 71 | 107 | 4.0 | 10.0 | 0.00 | 0.01 | 0.01 | 88 | 1015.1 |
| 20260906004542 | 71 | 123 | 1.0 | 9.0 | 0.00 | 0.01 | 0.01 | 88 | 1014.8 |
| 20260906003041 | 71 | 193 | 2.0 | 13.0 | 0.00 | 0.01 | 0.01 | 88 | 1014.7 |
| 20260906001539 | 71 | 156 | 6.0 | 10.0 | 0.00 | 0.01 | 0.01 | 87 | 1014.7 |
| 20260906000036 | 72 | 154 | 3.0 | 9.0 | 0.00 | 0.01 | 0.01 | 87 | 1014.7 |
| 20260905234534 | 72 | 160 | 5.0 | 15.0 | 0.00 | 0.01 | 0.01 | 86 | 1014.5 |
| 20260905233031 | 72 | 166 | 6.0 | 14.0 | 0.00 | 0.02 | 0.01 | 85 | 1014.6 |
| 20260905231526 | 74 | 200 | 5.0 | 12.0 | 0.00 | 0.02 | 0.01 | 85 | 1014.4 |
| 20260905230025 | 75 | 164 | 4.0 | 14.0 | 0.00 | 0.02 | 0.01 | 82 | 1014.2 |
| 20260905224602 | 77 | 135 | 6.0 | 13.0 | 0.00 | 0.02 | 0.01 | 80 | 1014.0 |
| 20260905223024 | 77 | 108 | 3.0 | 13.0 | 0.00 | 0.02 | 0.01 | 80 | 1013.9 |
| 20260905221522 | 77 | 152 | 2.0 | 13.0 | 0.00 | 0.02 | 0.01 | 81 | 1013.9 |
| 20260905220021 | 78 | 183 | 3.0 | 12.0 | 0.00 | 0.02 | 0.01 | 80 | 1013.9 |
| 20260905214520 | 79 | 220 | 2.0 | 13.0 | 0.00 | 0.02 | 0.01 | 79 | 1013.5 |
| 20260905213019 | 79 | 175 | 7.0 | 13.0 | 0.00 | 0.02 | 0.01 | 79 | 1013.4 |
| 20260905211537 | 80 | 144 | 4.0 | 13.0 | 0.00 | 0.02 | 0.01 | 77 | 1013.2 |
| 20260905210023 | 80 | 179 | 5.0 | 13.0 | 0.00 | 0.02 | 0.01 | 74 | 1013.2 |
| 20260905204517 | 81 | 176 | 6.0 | 13.0 | 0.00 | 0.02 | 0.01 | 74 | 1013.2 |
| 20260905204515 | 81 | 198 | 6.0 | 13.0 | 0.00 | 0.02 | 0.01 | 74 | 1013.2 |
| 20260905203014 | 81 | 177 | 3.0 | 7.0 | 0.00 | 0.02 | 0.01 | 75 | 1013.3 |
| 20260905201520 | 80 | 123 | 2.0 | 7.0 | 0.00 | 0.02 | 0.01 | 75 | 1013.2 |
| 20260905200020 | 81 | 158 | 4.0 | 10.0 | 0.00 | 0.02 | 0.01 | 75 | 1013.4 |
| 20260905194506 | 80 | 152 | 2.0 | 6.0 | 0.00 | 0.02 | 0.01 | 78 | 1013.5 |
| 20260905193001 | 79 | 113 | 1.0 | 9.0 | 0.01 | 0.02 | 0.01 | 81 | 1013.8 |
| 20260905191606 | 78 | 154 | 1.0 | 8.0 | 0.01 | 0.02 | 0.01 | 82 | 1013.9 |
| 20260905190029 | 78 | 181 | 3.0 | 8.0 | 0.01 | 0.02 | 0.01 | 82 | 1014.0 |
| 20260905184530 | 77 | 168 | 2.0 | 9.0 | 0.01 | 0.02 | 0.01 | 83 | 1014.0 |
| 20260905183023 | 77 | 175 | 3.0 | 7.0 | 0.00 | 0.01 | 0.00 | 84 | 1014.2 |
| 20260905181520 | 76 | 156 | 2.0 | 6.0 | 0.00 | 0.01 | 0.00 | 85 | 1014.0 |
| 20260905180018 | 76 | 82 | 1.0 | 11.0 | 0.00 | 0.01 | 0.00 | 85 | 1014.1 |
| 20260905174519 | 76 | 175 | 3.0 | 8.0 | 0.00 | 0.01 | 0.00 | 86 | 1013.9 |
| 20260905173014 | 75 | 145 | 2.0 | 9.0 | 0.00 | 0.01 | 0.00 | 86 | 1013.9 |
| 20260905171513 | 75 | 123 | 3.0 | 9.0 | 0.00 | 0.01 | 0.00 | 86 | 1014.0 |
| 20260905170012 | 75 | 148 | 4.0 | 9.0 | 0.00 | 0.01 | 0.00 | 87 | 1014.1 |
| 20260905164518 | 75 | 148 | 5.0 | 11.0 | 0.00 | 0.01 | 0.00 | 87 | 1014.3 |
| 20260905163007 | 75 | 171 | 4.0 | 10.0 | 0.00 | 0.01 | 0.00 | 87 | 1014.2 |
| 20260905161507 | 75 | 152 | 3.0 | 10.0 | 0.00 | 0.01 | 0.00 | 87 | 1014.2 |
| 20260905160006 | 75 | 157 | 4.0 | 11.0 | 0.00 | 0.01 | 0.00 | 87 | 1014.1 |
| 20260905154503 | 76 | 29 | 2.0 | 9.0 | 0.00 | 0.01 | 0.00 | 88 | 1013.9 |
| 20260905153059 | 75 | 162 | 1.0 | 10.0 | 0.00 | 0.01 | 0.00 | 88 | 1013.7 |
| 20260905151558 | 75 | 161 | 3.0 | 9.0 | 0.00 | 0.01 | 0.00 | 88 | 1013.7 |
| 20260905144555 | 75 | 172 | 1.0 | 8.0 | 0.00 | 0.01 | 0.00 | 89 | 1013.5 |
| 20260905143048 | 73 | 221 | 2.0 | 7.0 | 0.00 | 0.01 | 0.00 | 85 | 1013.3 |
| 20260905141545 | 73 | 150 | 3.0 | 10.0 | 0.00 | 0.01 | 0.00 | 85 | 1013.5 |
| 20260905140041 | 72 | 173 | 5.0 | 12.0 | 0.00 | 0.01 | 0.00 | 83 | 1013.3 |
| 20260905134537 | 72 | 90 | 3.0 | 11.0 | 0.00 | 0.01 | 0.00 | 82 | 1013.2 |
| 20260905133037 | 72 | 136 | 4.0 | 8.0 | 0.00 | 0.01 | 0.01 | 82 | 1013.2 |
| 20260905131533 | 72 | 85 | 0.0 | 2.0 | 0.00 | 0.01 | 0.01 | 81 | 1013.6 |
| 20260905130033 | 72 | 151 | 0.0 | 3.0 | 0.00 | 0.01 | 0.01 | 81 | 1013.1 |
| 20260905124532 | 72 | 152 | 1.0 | 4.0 | 0.00 | 0.01 | 0.01 | 82 | 1013.0 |
| 20260905123029 | 71 | 157 | 2.0 | 9.0 | 0.00 | 0.01 | 0.01 | 82 | 1012.7 |
| 20260905121529 | 71 | 160 | 1.0 | 12.0 | 0.00 | 0.01 | 0.01 | 82 | 1012.3 |
| 20260905120027 | 71 | 161 | 3.0 | 9.0 | 0.00 | 0.01 | 0.01 | 83 | 1012.2 |
| 20260905114528 | 71 | 179 | 3.0 | 9.0 | 0.00 | 0.01 | 0.01 | 83 | 1012.0 |
| 20260905113023 | 71 | 152 | 3.0 | 8.0 | 0.00 | 0.01 | 0.01 | 83 | 1011.8 |
| 20260905111523 | 71 | 142 | 2.0 | 9.0 | 0.00 | 0.01 | 0.01 | 83 | 1011.6 |
| 20260905110022 | 71 | 168 | 1.0 | 4.0 | 0.00 | 0.01 | 0.01 | 83 | 1011.3 |